Flag for Belgium Weather past 2 weeks in Kortrijk, Belgium

Now
46 °F

Partly sunny.


Feels Like: 38 °F
Forecast: 36 / 49 °F
Wind: 23 mph from Northwest

Location: Lille Airport

Current Time: Apr 1, 2015 at 12:53:08 PM

Latest Report: Apr 1, 2015 at 12:30 PM


Visibility: N/A

Pressure: 30.24 "Hg

Humidity: 57%

Dew point: 32 °F

Location of KortrijkLocation

Historic Weather in Kortrijk — Graph

°F

Kortrijk temperature yesterday

Maximum temperature yesterday: 57 °F (at 5:00 PM)
Minimum temperature yesterday: 45 °F (at 9:30 PM)
Average temperature yesterday: 52 °F

Past Weeks' High & Low Weather Summary

 TemperatureHumidityPressure
High63 °F (Mar 17, 3:30 PM)100% (Mar 18, 8:47 AM)30.42 "Hg (Mar 18, 8:47 AM)
Low30 °F (Mar 23, 3:00 AM)39% (Mar 17, 3:30 PM)29.45 "Hg (Mar 29, 5:30 PM)
Average45 °F82%30.01 "Hg
* Reported Mar 17 11:00 AM — Apr 1 12:00 Noon, Kortrijk, Weather by CustomWeather, © 2015

Note: Actual official high and low records may vary slightly from our data, if they occured in-between our weather recording intervals... More about our weather records

Advertising

Kortrijk weather history for previous 24 hours

 ConditionsComfort  
Time TempWeatherWind HumidityBarometerVisibility
12:00 PM
Wed, Apr 1
46 °FPartly sunny.21 mph57%30.21 "HgN/A
11:30 AM46 °FPartly sunny.23 mph57%30.21 "HgN/A
11:00 AM45 °FPartly sunny.22 mph61%30.21 "HgN/A
10:00 AM45 °FScattered clouds.20 mph61%30.18 "HgN/A
9:30 AM43 °FScattered clouds.17 mph66%30.18 "HgN/A
9:00 AM41 °FPartly sunny.15 mph70%30.18 "HgN/A
8:30 AM41 °FScattered clouds.15 mph70%30.18 "HgN/A
8:00 AM39 °FPassing clouds.16 mph75%30.15 "HgN/A
7:30 AM39 °FPassing clouds.16 mph75%30.15 "HgN/A
7:00 AM39 °FPassing clouds.16 mph70%30.12 "HgN/A
6:30 AM41 °FPassing clouds.18 mph66%30.12 "HgN/A
6:00 AM41 °FPassing clouds.18 mph70%30.09 "HgN/A
5:30 AM41 °FPassing clouds.18 mph66%30.09 "HgN/A
5:00 AM41 °FPassing clouds.15 mph70%30.09 "HgN/A
4:30 AM41 °FClear.15 mph66%30.09 "HgN/A
4:00 AM41 °FClear.15 mph66%30.07 "HgN/A
3:30 AM41 °FClear.15 mph70%30.07 "HgN/A
3:00 AM41 °FClear.15 mph76%30.07 "HgN/A
2:30 AM39 °FPassing clouds.12 mph87%30.04 "HgN/A
2:00 AM37 °FPartly cloudy.23 mph93%30.04 "HgN/A
1:30 AM43 °FPassing clouds.13 mph71%30.07 "HgN/A
1:00 AM43 °FPassing clouds.17 mph71%30.04 "HgN/A
12:30 AM43 °FPassing clouds.17 mph76%30.04 "HgN/A
12:00 AM43 °FPassing clouds.18 mph76%30.01 "HgN/A
11:30 PM
Tue, Mar 31
45 °FPassing clouds.15 mph76%30.01 "HgN/A
11:00 PM45 °FPassing clouds.14 mph76%29.98 "HgN/A
10:30 PM45 °FPassing clouds.15 mph76%29.98 "HgN/A
10:00 PM45 °FPassing clouds.17 mph81%29.98 "HgN/A
9:30 PM45 °FPassing clouds.25 mph76%29.95 "HgN/A
9:00 PM48 °FLight rain. Partly sunny.25 mph71%29.95 "Hg5 mi
8:30 PM50 °FScattered showers. Passing clouds.24 mph62%29.92 "HgN/A
8:00 PM52 °FScattered showers. Scattered clouds.28 mph58%29.92 "HgN/A
7:30 PM52 °FPassing clouds.28 mph58%29.89 "HgN/A
7:00 PM52 °FPassing clouds.31 mph54%29.89 "HgN/A
6:30 PM54 °FPassing clouds.28 mph51%29.89 "HgN/A
6:00 PM55 °FSunny.31 mph47%29.86 "Hg10 mi
5:30 PM55 °FPartly sunny.26 mph47%29.86 "HgN/A
5:00 PM57 °FSunny.30 mph41%29.86 "Hg10 mi
4:30 PM55 °FSunny.22 mph44%29.86 "Hg10 mi
4:00 PM55 °FPassing clouds.24 mph47%29.83 "HgN/A
3:30 PM55 °FScattered clouds.22 mph51%29.83 "HgN/A
3:00 PM55 °FScattered clouds.23 mph59%29.80 "HgN/A
2:30 PM54 °FScattered clouds.18 mph67%29.80 "HgN/A
2:00 PM50 °FSnow flurries. Broken clouds.20 mph67%29.80 "Hg6 mi
1:30 PM54 °FBroken clouds.26 mph63%29.77 "HgN/A
1:00 PM54 °FBroken clouds.30 mph67%29.74 "HgN/A
12:30 PM54 °FBroken clouds.29 mph63%29.74 "HgN/A
12:00 PM52 °FBroken clouds.32 mph62%29.71 "HgN/A
Weather by CustomWeather, © 2015

See weather overviewHow to use our weather pages